This demonstration page uses our WeatherBlox Daily Observations layout. Learn more.

Left ArrowRight Arrow

44.89941, -97.11507

Hourly Observations for April 9, 2019

Temp ( °F °C ) Dew Point ( °F °C ) Humidity (%) Winds ( mph kmh ) Pressure ( in mb ) Visibility ( mi km ) Precip ( " mm )
12:08 am 00:08 Mostly Cloudy with Fog 42 5.6 42 5.6 100 100 Calm 30.02 1017 0 0 0.00 0.00
12:44 am 00:44 Mostly Cloudy with Fog 37 2.8 37 2.8 100 100 SSW 3 6 30.04 1017 0 0 0.00 0.00
12:53 am 00:53 Mostly Cloudy with Fog 36 2.2 35 1.7 97 97 Calm 30.00 1016 0 0 0.00 0.00
1:53 am 01:53 Mostly Cloudy with Fog 35 1.7 34 1.1 96 96 SSW 7 11 29.99 1016 0 0 0.00 0.00
2:19 am 02:19 Mostly Cloudy with Fog 32 0 31 -0.6 96 96 Calm 30.05 1018 1 1 0.00 0.00
2:46 am 02:46 Mostly Cloudy with Fog 32 0 31 -0.6 96 96 SW 5 7 30.05 1018 0 0 0.00 0.00
2:53 am 02:53 Mostly Cloudy with Freezing Fog 31 -0.6 30 -1.1 96 96 Calm 29.99 1016 1 1 0.00 0.00
3:01 am 03:01 Mostly Cloudy with Fog 33 0.6 32 0 96 96 SSW 3 6 30.04 1017 0 0 0.00 0.00
3:53 am 03:53 Mostly Cloudy with Freezing Fog 31 -0.6 30 -1.1 96 96 S 3 6 29.99 1016 0 0 0.00 0.00
4:01 am 04:01 Mostly Cloudy with Fog 32 0 32 0 100 100 Calm 30.05 1018 1 1 0.00 0.00
4:13 am 04:13 Mostly Cloudy with Fog 33 0.6 32 0 96 96 Calm 30.04 1017 0 0 0.00 0.00
4:45 am 04:45 Mostly Cloudy with Fog 32 0 31 -0.6 96 96 SSE 3 6 30.04 1017 1 1 0.00 0.00
4:53 am 04:53 Mostly Clear with Mist and Fog 31 -0.6 31 -0.6 100 100 Calm 29.98 1015 1 2 0.00 0.00
5:00 am 05:00 Clear with Mist and Fog 32 0 31 -0.6 96 96 Calm 30.04 1017 2 3 0.00 0.00
5:04 am 05:04 Clear with Mist and Fog 32 0 30 -1.1 92 92 Calm 30.04 1017 1 2 0.00 0.00
5:13 am 05:13 Mostly Cloudy with Fog 33 0.6 31 -0.6 92 92 Calm 30.03 1017 1 1 0.00 0.00
5:23 am 05:23 Mostly Cloudy with Fog 32 0 31 -0.6 96 96 Calm 30.04 1017 0 0 0.00 0.00
5:31 am 05:31 Mostly Cloudy with Fog 32 0 31 -0.6 96 96 Calm 30.04 1017 0 0 0.00 0.00
5:53 am 05:53 Mostly Clear with Mist and Fog 33 0.6 32 0 96 96 Calm 29.98 1015 3 5 0.00 0.00
6:53 am 06:53 Clear with Mist and Fog 33 0.6 32 0 96 96 Calm 29.98 1015 6 10 0.00 0.00
7:04 am 07:04 Sunny with Mist and Fog 32 0 31 -0.6 96 96 Calm 30.03 1017 2 3 0.00 0.00
7:13 am 07:13 Sunny with Mist and Fog 33 0.6 31 -0.6 92 92 Calm 30.03 1017 5 8 0.00 0.00
7:20 am 07:20 Sunny with Mist and Fog 32 0 31 -0.6 96 96 Calm 30.03 1017 2 3 0.00 0.00
7:30 am 07:30 Sunny with Mist and Fog 33 0.6 32 0 96 96 Calm 30.02 1017 3 5 0.00 0.00
7:53 am 07:53 Sunny 34 1.1 33 0.6 97 97 Calm 29.98 1015 8 13 0.00 0.00
8:53 am 08:53 Sunny 39 3.9 37 2.8 93 93 Calm 29.98 1015 9 14 0.00 0.00
9:53 am 09:53 Sunny 46 7.8 40 4.4 79 79 WNW 3 6 29.98 1015 10 16 0.00 0.00
10:53 am 10:53 Sunny 48 8.9 40 4.4 74 74 N 10 17 29.99 1016 10 16 0.00 0.00
11:53 am 11:53 Mostly Sunny 47 8.3 40 4.4 77 77 NNE 14 22 30.01 1016 10 16 0.00 0.00
12:53 pm 12:53 Mostly Cloudy 43 6.1 37 2.8 80 80 NE 13 20 30.02 1017 10 16 0.00 0.00
1:53 pm 13:53 Mostly Sunny 44 6.7 36 2.2 73 73 NE 9 15 30.01 1016 10 16 0.00 0.00
2:53 pm 14:53 Cloudy 44 6.7 34 1.1 68 68 NNE 12 19 30.01 1016 10 16 0.00 0.00
3:53 pm 15:53 Cloudy 40 4.4 32 0 73 73 NE 12 19 30.02 1017 10 16 0.00 0.00
4:53 pm 16:53 Cloudy 38 3.3 31 -0.6 76 76 NE 15 24 30.01 1016 10 16 0.00 0.00
5:53 pm 17:53 Cloudy 36 2.2 29 -1.7 76 76 NE 12 19 30.02 1017 10 16 0.00 0.00
6:53 pm 18:53 Cloudy 34 1.1 27 -2.8 76 76 NNE 15 24 30.04 1017 10 16 0.00 0.00
7:53 pm 19:53 Cloudy 33 0.6 27 -2.8 78 78 NE 13 20 30.03 1017 10 16 0.00 0.00
8:53 pm 20:53 Cloudy 32 0 27 -2.8 82 82 NE 12 19 30.03 1017 10 16 0.00 0.00
9:53 pm 21:53 Cloudy 31 -0.6 27 -2.8 85 85 NE 14 22 30.03 1017 10 16 0.00 0.00
10:53 pm 22:53 Cloudy 31 -0.6 26 -3.3 82 82 NE 14 22 30.04 1017 10 16 0.00 0.00
11:53 pm 23:53 Cloudy 30 -1.1 26 -3.3 85 85 NE 15 24 30.03 1017 10 16 0.00 0.00

Powered by AerisWeather